OBJECT H, 44886

Orbit data source: Space-Track

You're viewing an Uncataloged Satellite

Recently launched and/or uncataloged satellites may have evolving metadata. Metadata may include but not limited to: Owner, Maufacturer, Bus, Motor, and Mission.

OBJECT H, 44886 is a satellite in SSO that was launched on Fri, 20 Dec 2019 UTC via a CHANG ZHENG 4B launch vehicle from the Taiyaun Space Center, China (TSC). Unknown objects in Earth's orbit typically refer to objects detected orbiting the Earth but have not yet been identified or cataloged. These objects could be anything from previously untracked satellites, spent rocket stages, debris from satellite collisions, or even natural meteoroids temporarily captured by Earth's gravity.

Loading next visibility...
Identifier
44886, 2019-093H
Orbit
SSO
Country
Flag of TBDTBD
Related business
None
Manufacturer
Unknown
Mission
Operational Commercial Imaging
Bus & Motor
Unknown
Mass
Unknown
Launch date (UTC)
2019-12-20 (6 years ago)
Launch vehicle
CHANG ZHENG 4B
Launch site
Taiyaun Space Center, China (TSC)
Object type
Unknown
Shape & HBR
Box + 2 Pan, Unknown HBR
Radar Cross Section
0.195 m², Medium (>0.1 m² and < 1m²)

Expand to show TLE details & history
Last TLE update: 18 hours ago

TLE from 18 hours ago
0 OBJECT H
1 44886U 19093H   25309.30977940  .00003917  00000-0  37651-3 0  9995
2 44886  97.8149  33.7385 0013459  91.2698 269.0064 14.93539531318749
Epoch: 2025-11-05T07:26Z
TLE epoch observation values (Epoch: 2025-11-05T07:26:04.940Z)
Latitude
0.00004°
Longitude
-122.56638°
Altitude
590.127 km
Speed
7.565 km/s
True Right ascension
02h 14m 57s
True Declination
0° 00' 00"
Sunlit
Object was in full shadow at epoch
Visualization orbit readout
Latitude
Unknown
Longitude
Unknown
Altitude
Unknown
Speed
Unknown
Apparent Right ascension
Unknown
Apparent Declination
Unknown
Sunlit
N/A
Visualization observer readout
Local Sidereal Time
21:26:35
Azimuth
Unknown
Elevation
Unknown
Doppler factor
Unknown
Orbital elements
Apogee altitude
593.299 km
Perigee altitude
574.558 km
Semi-major axis
6,962.066 km
Eccentricity
0.00135
Inclination
97.8149°
RAAN
33.7385°
Arg. of periapsis
91.2698°
True anomaly
268.8522°
Mean anomaly
269.0064°
Eccentric anomaly
268.9293°
Mean motion
3.73625 °/min
Orbital period
96.35 mins
BSTAR
0.00037651
Loading maneuver chart data...
Computing Atmospheric mass density...
Loading historical data...
Loading historical data...
Loading historical data...
Loading historical data...
Loading historical data...
Loading historical data...
Loading historical data...

Documentation

Showing up to 5 results
|